#timestamp,LO_Frequency,Hit,StdDev 
1629738015.9,286047011.2,N
1629738035.7,286047013.6,N
1629738055.6,286047018.2,Y
1629738075.4,286047007.9,P
1629738095.2,286047005.6,P
1629738115.1,286047005.9,P
1629738116.0,286047005.9,Y
1629738135.8,286046999.2,P
1629738155.7,286047003.5,N
1629738175.5,286047002.4,N
1629738195.3,286047000.4,N
1629738215.2,286046997.6,N
1629738235.0,286046996.1,N
1629738235.9,286046996.1,N
1629738255.7,286046994.1,N
1629738275.6,286046994.7,N
1629738295.4,286046996.6,N
1629738315.3,286047007.1,N
1629738335.1,286047012.7,N
1629738336.0,286047012.7,N
1629738355.8,286047011.3,N
1629738375.7,286047006.3,N
1629738395.5,286047009.8,N
1629738415.3,286047013.5,N
1629738435.2,286047013.4,N
1629738455.0,286047007.8,N
1629738455.9,286047007.8,N
1629738475.8,286047010.3,N
1629738495.6,286047011.1,N
1629738515.4,286047009.9,N
1629738535.3,286047011.1,N
1629738555.1,286047011.9,N
1629738575.8,286047010.5,N
1629738595.7,286047008.4,N
1629738615.5,286047011.4,N
1629738635.4,286047008.6,N
1629738655.2,286047008.2,N
1629738675.0,286047004.9,N
1629738675.9,286047004.9,N
1629738695.8,286047005.3,N
1629738715.6,286047005.3,N
1629738735.4,286047006.4,N
1629738755.3,286047006.2,N
1629738775.1,286047006.6,N
1629738795.9,286047015.2,Y
1629738815.7,286047007.8,P
1629738835.5,286047012.4,P
1629738855.4,286047010.9,P
1629738875.2,286047016.9,Y
1629738895.1,286047002.0,P
1629738896.0,286047002.0,N
1629738915.8,286047000.7,N
1629738935.6,286046997.7,N
1629738955.5,286046995.5,N
1629738975.3,286046994.4,N
1629738995.2,286046993.2,N
1629739015.9,286046992.2,N
1629739035.7,286046996.8,N
1629739055.6,286046997.7,N
1629739075.4,286046997.3,N
1629739095.2,286046999.3,N
1629739115.1,286046998.9,N
1629739116.0,286046998.9,N
1629739135.8,286047000.2,N
1629739155.7,286047003.9,N
1629739175.5,286047003.4,N
1629739195.3,286047005.8,N
1629739215.2,286047003.0,N
1629739235.0,286047005.2,N
1629739235.9,286047005.2,N
1629739255.7,286047006.9,N
1629739275.6,286047002.2,N
1629739295.4,286046996.5,N
1629739315.3,286046997.9,N
1629739335.1,286046996.9,N
1629739336.0,286046996.9,N
1629739355.8,286046998.8,N
1629739375.7,286047002.6,N
1629739395.5,286047002.8,N
1629739415.3,286047006.0,N
1629739435.2,286047001.6,N
1629739455.0,286046998.4,N
1629739455.9,286046998.4,N
1629739475.8,286047004.0,N
1629739495.6,286047004.1,N
1629739515.4,286047000.2,N
1629739535.3,286047000.8,N
1629739555.1,286047001.1,N
1629739575.8,286047001.6,N
1629739595.7,286047003.6,N
1629739615.5,286046998.5,N
1629739635.4,286046998.2,N
1629739655.2,286046997.7,N
1629739675.0,286046995.3,N
1629739675.9,286046995.3,N
1629739695.8,286046995.8,N
1629739715.6,286046996.6,N
1629739735.4,286046996.5,N
1629739755.3,286046999.9,N
1629739775.1,286046998.1,N
1629739795.9,286047001.2,N
1629739815.7,286047000.4,N
1629739835.5,286047005.7,N
1629739855.4,286047007.9,N
1629739875.2,286047011.4,Y
1629739895.1,286047011.4,P
1629739896.0,286047011.4,N
1629739915.8,286047014.3,N
1629739935.6,286047017.6,Y
1629739955.5,286047010.8,P
1629739975.3,286047012.3,P
1629739995.1,286047012.2,P
1629740015.9,286047009.4,Y
1629740035.7,286046998.6,P
1629740055.6,286046996.3,N
1629740075.4,286046994.2,N
1629740095.2,286046993.8,N
1629740115.1,286046990.1,N
1629740116.0,286046990.1,N
1629740135.8,286046989.7,N
1629740155.6,286046985.4,N
1629740175.5,286046989.3,N
1629740195.3,286046994.3,N
1629740215.2,286046999.6,N
1629740235.9,286046997.3,N
1629740255.7,286046993.6,N
1629740275.6,286046996.3,N
1629740295.4,286047000.0,N
1629740315.3,286047002.7,N
1629740335.1,286047004.3,N
1629740355.8,286047005.5,N
1629740375.7,286047003.6,N
1629740395.5,286047004.2,N
1629740415.4,286046999.6,N
1629740435.2,286046999.1,N
1629740455.0,286047003.7,N
1629740455.9,286047003.7,N
1629740475.8,286047004.8,N
1629740495.6,286047005.8,N
1629740515.5,286047002.4,N
1629740535.3,286047000.9,N
1629740555.1,286046995.0,N
1629740575.9,286047001.1,N
1629740595.7,286046998.8,N
1629740615.5,286047001.1,N
1629740635.4,286046999.2,N
1629740655.2,286047005.1,N
1629740675.1,286047005.4,N
1629740676.0,286047005.4,N
1629740695.8,286047004.2,N
1629740715.6,286047003.2,N
1629740735.5,286047006.5,N
1629740755.3,286047007.9,N
1629740775.2,286047005.5,N
1629740795.9,286047001.3,N
1629740815.7,286046999.0,N
1629740835.6,286046995.6,N
1629740855.4,286046992.5,N
1629740875.2,286046993.7,N
1629740895.1,286046999.2,N
1629740896.0,286046999.2,N
1629740915.8,286046997.7,N
1629740935.7,286046999.8,N
1629740955.5,286047002.7,N
1629740975.3,286047000.8,N
1629740995.2,286046998.6,N
1629741015.0,286047001.1,N
1629741015.9,286047001.1,N
1629741035.8,286047000.4,N
1629741055.6,286047002.7,N
1629741075.4,286046998.8,N
1629741095.3,286047002.4,N
1629741115.1,286047003.5,N
1629741116.0,286047003.5,N
1629741135.8,286047005.6,N
1629741155.7,286047008.4,N
1629741175.5,286047012.3,Y
1629741195.4,286047006.2,P
1629741215.2,286047002.5,N
1629741235.0,286047001.0,N
1629741235.9,286047001.0,N
1629741255.8,286047003.4,N
1629741275.6,286047000.5,N
1629741295.4,286046998.9,N
1629741315.3,286046996.9,N
1629741335.1,286047000.5,N
1629741355.9,286047000.5,N
1629741375.7,286046995.3,N
1629741395.5,286046995.9,N
1629741415.4,286047011.9,Y
1629741435.2,286046997.2,P
1629741455.0,286047003.6,N
1629741455.9,286047003.6,N
1629741475.8,286047007.3,N
1629741495.6,286047009.3,N
1629741515.5,286047016.3,Y
1629741535.3,286047018.4,P
1629741555.1,286047015.8,N
1629741575.9,286047016.5,N
1629741595.7,286047013.8,N
